Regional Weather Roundup
Issued by NWS

Home | Current Version | Previous Version | Graphics & Text | Print | Product List | Glossary On
Versions: 1 2 3 4 5 6 7 8 9 10 11 12 13 14 15 16 17 18 19 20 21 22 23 24 25 26 27 28 29 30 31 32 33 34 35 36 37 38 39 40 41 42 43 44 45 46 47 48 49 50
000
ASUS43 KDTX 240210
RWRMI
MICHIGAN HOURLY REGIONAL WEATHER ROUNDUP
NATIONAL WEATHER SERVICE DETROIT/PONTIAC MI
900 PM EST TUE JAN 23 2018

NOTE: "FAIR" INDICATES FEW OR NO CLOUDS BELOW 12,000 FEET WITH NO
SIGNIFICANT WEATHER AND/OR OBSTRUCTION TO VISIBILITY.

MIZ047>049-052>055-059>063-066>070-074>076-081>083-240300-
SOUTHEAST LOWER MICHIGAN

CITY           SKY/WX    TMP DP  RH WIND       PRES   REMARKS
ADRIAN         CLOUDY    30  24  78 NW15G23   29.96R WCI  19
ALMA           MOCLDY    27  23  84 NW12G22   29.96R WCI  17
ANN ARBOR      CLOUDY    29  23  78 W16G25    29.93R WCI  17
BAD AXE        CLOUDY    23  18  81 NW16G23   29.90R WCI   9
CARO           CLOUDY    24  19  80 NW16G24   29.92R WCI  11
DETROIT CITY   CLOUDY    30  23  75 NW14G22   29.91R WCI  19
DETROIT        CLOUDY    31  24  75 W16       29.92R WCI  20
FLINT          CLOUDY    26  20  77 NW18      29.94R WCI  13
GROSSE ILE     CLOUDY    32  25  77 NW15G21   29.92R WCI  21
HILLSDALE      CLOUDY    30  23  74 NW10      29.94R WCI  21
HOWELL         CLOUDY    28  23  81 NW12G23   29.93R WCI  18

CITY           SKY/WX    TMP DP  RH WIND       PRES   REMARKS
JACKSON        CLOUDY    29  22  75 NW12G22   29.95R WCI  19
LAMBERTVILLE   CLOUDY    31  28  88 W10G16    29.95R WCI  22
LANSING        CLOUDY    28  22  78 NW14      29.97R WCI  17
LAPEER         CLOUDY    26  21  81 NW14G23   29.91R WCI  14
MASON          CLOUDY    28  19  69 NW10      29.96R WCI  19
MONROE         CLOUDY    31  26  79 NW12G17   29.93R WCI  22
MT. CLEMENS    CLOUDY    29  25  84 NW16G24   29.89R WCI  18
PONTIAC        FLURRIES  27  22  81 NW16G23   29.89R WCI  15
PORT HOPE        N/A     25  19  78 NW22G31   29.87R WCI  10
PORT HURON     CLOUDY    27  19  74 NW15G28   29.91R WCI  15
TRI CITIES     CLOUDY    27  23  85 NW8       29.95R WCI  19
MIDLAND        CLOUDY    28  23  82 NW7       29.94R WCI  20
TROY           CLOUDY    30  23  75 W17G25    29.93R WCI  18
SAGINAW HB     CLOUDY    27  21  80 NW8       29.95R WCI  18
$$
MIZ043>046-050>051-056>058-064>065-071>073-077>080-240300-
SOUTHWEST LOWER MICHIGAN

CITY           SKY/WX    TMP DP  RH WIND       PRES   REMARKS
BATTLE CREEK   CLOUDY    29  22  75 NW10      30.00R WCI  20
BENTON HARBOR  CLOUDY    33  24  69 NW6       30.06R WCI  28
BIG RAPIDS     MOCLDY    25  19  76 NW8G16    29.98R WCI  17
COLDWATER      CLOUDY    30  25  81 NW12G17   29.99R WCI  21
FREMONT        CLOUDY    28  19  69 NW14      30.02R WCI  16
HOLLAND        CLOUDY    30  22  72 N15G26    30.04R WCI  19
GRAND RAPIDS   MOCLDY    29  21  72 NW20      30.00R WCI  16
IONIA          CLOUDY    29  22  75 NW8G22    29.97R WCI  21
KALAMAZOO      CLOUDY    31  23  72 NW9       30.01R WCI  23
LUDINGTON      CLOUDY    27  21  79 NW8G16    30.03S WCI  19
MARSHALL       CLOUDY    28  20  71 NW6G17    29.98R WCI  22
MOUNT PLEASANT FAIR      28  20  73 NW13G23   29.95R WCI  17
MUSKEGON       CLOUDY    29  21  72 NW10      30.05R WCI  20
SOUTH HAVEN    CLOUDY    32  26  77 N12G17    30.05R WCI  23
$$
MIZ016>042-240300-
NORTHERN LOWER MICHIGAN

CITY           SKY/WX    TMP DP  RH WIND       PRES   REMARKS
ALPENA         CLOUDY    23  19  85 NW8       29.91R WCI  14
BEAVER ISLAND  CLOUDY    22  17  79 NW7       30.00R WCI  14
BELLAIRE       CLOUDY    23  18  81 NW8G21    30.00R WCI  14
CADILLAC       CLOUDY    23  19  82 NW10G22   29.95R WCI  13
CHARLEVOIX     CLOUDY    23  18  80 NW6       30.02R WCI  15
FRANKFORT      CLOUDY    26  19  74 NW8G18    30.04R WCI  17
GAYLORD        CLOUDY    19  17  92 NW8G18    29.91R WCI   9
GRAYLING       CLOUDY    21  16  80 NW9G26    29.94R WCI  11
HARBOR SPRINGS CLOUDY    19  16  86 N3        29.98R
HOUGHTON LAKE  CLOUDY    22  17  81 NW17G28   29.93R WCI   8
MANISTEE       CLOUDY    26  20  77 N15G23    30.04R WCI  14
OSCODA         FLURRIES  23  17  80 NW9       29.90R WCI  13
PELLSTON       CLOUDY    19  15  84 NW10      29.96R WCI   7
ROGERS CITY    CLOUDY    22  19  87 NW7       29.93R WCI  14
TRAVERSE CITY  CLOUDY    26  18  71 NW14G25   30.00R WCI  14
$$
MIZ007>008-015-240300-
EASTERN UPPER MICHIGAN

CITY           SKY/WX    TMP DP  RH WIND       PRES   REMARKS
KINROSS        CLOUDY    13   7  77 N14G20    29.95R WCI  -2
MACKINAC ISLAN CLOUDY    17  14  86 NW14G22   29.95R WCI   3
NEWBERRY       FLURRIES  16  15  95 N14G20    29.99R WCI   1
S. S. MARIE    FAIR      11   3  70 N14G23    29.96R WCI  -5
MUNISING         N/A     22  16  78 N17       30.05R WCI   8
$$
MIZ004>006-011>014-085-240300-
CENTRAL UPPER MICHIGAN

CITY           SKY/WX    TMP DP  RH WIND       PRES   REMARKS
ESCANABA       FLURRIES  17  11  77 NW10      30.07S WCI   5
MENOMINEE      FAIR      18  14  84 N7        30.10R WCI   9
SAWYER-GWINN   FLURRIES  16  10  79 NW10      30.04R WCI   3
$$
MIZ001>003-009>011-084-240300-
WESTERN UPPER MICHIGAN

CITY           SKY/WX    TMP DP  RH WIND       PRES   REMARKS
IRON MOUNTAIN  FAIR      14   9  80 N10       30.06R WCI   1
HOUGHTON       CLOUDY    15   7  70 N6        30.10R WCI   6
COPPER HARBOR    N/A     20  14  77 NE13      30.11R WCI   7
IRONWOOD       FAIR       8   4  83 CALM      30.12R
$$

ABBREVIATIONS USED IN REMARKS
   TC - TEMPERATURE IN CELSIUS
  WCI - WIND CHILL INDEX
   HX - HEAT INDEX
  VSB - VISIBILITY





USA.gov is the U.S. government's official web portal to all federal, state and local government web resources and services.